Regional Weather Roundup
Issued by NWS

Home | Current Version | Previous Version | Graphics & Text | Print | Product List | Glossary On
Versions: 1 2 3 4 5 6 7 8 9 10 11 12 13 14 15 16 17 18 19 20 21 22 23 24 25 26 27 28
000
ASUS45 KCYS 240010
RWRWY

WYOMING REGIONAL WEATHER ROUNDUP
NATIONAL WEATHER SERVICE CHEYENNE WY
600 PM MDT SAT SEP 23 2017

NOTE:  "FAIR" INDICATES FEW OR NO CLOUDS BELOW 12,000 FEET
WITH NO SIGNIFICANT WEATHER AND/OR OBSTRUCTIONS TO VISIBILITY.

WYZ001-240100-
YELLOWSTONE NATIONAL PARK

CITY           SKY/WX    TMP DP  RH WIND       PRES   REMARKS
LK YELLOWSTONE NOT AVBL
W YELLOWSTONE  NOT AVBL

$$
WYZ002>013-054>058-071-098>099-240100-
NORTHERN WYOMING

CITY           SKY/WX    TMP DP  RH WIND       PRES   REMARKS
JACKSON        CLOUDY    49  31  49 N8        29.97R
CODY           CLOUDY    41  35  79 N9        30.07R
GREYBULL       LGT RAIN  46  41  82 NW10      30.02F
6HR MIN TEMP:  44; 6HR MAX TEMP:  46; 6HR PCP: TRACE;

WORLAND        LGT RAIN  43  42  97 N7        30.03F
6HR MIN TEMP:  43; 6HR MAX TEMP:  44; 6HR PCP:  0.09;

SHERIDAN       LGT RAIN  42  41  96 N5        30.07F
6HR MIN TEMP:  42; 6HR MAX TEMP:  43; 6HR PCP:  0.11;

BUFFALO        LGT RAIN  39  36  89 N12       30.06F WCI  32
6HR MIN TEMP:  38; 6HR MAX TEMP:  41; 6HR PCP:  0.09;

GILLETTE       CLOUDY    42  41  96 N13       30.02F
6HR MIN TEMP:  41; 6HR MAX TEMP:  43; 6HR PCP:  0.13;

HULETT         RAIN      41  41 100 NE6       30.06F
NEWCASTLE      LGT RAIN  45  43  93 S5        30.03S

$$
WYZ014>020-022>026-101>103-240100-
CENTRAL WYOMING

CITY           SKY/WX    TMP DP  RH WIND       PRES   REMARKS
BIG PINEY      PTSUNNY   51  31  46 SE5       29.93S
6HR MIN TEMP:  43; 6HR MAX TEMP:  52;

PINEDALE       FAIR      50  32  50 N3        29.93F
DUBOIS         CLOUDY    39  34  81 SE9       30.00R WCI  33
LANDER         LGT RAIN  40  39  97 N8        30.00S FOG     WCI  34
                                      6HR PCP:  0.01;

RIVERTON       CLOUDY    40  39  97 N12       30.01R WCI  33
6HR MIN TEMP:  40; 6HR MAX TEMP:  41; 6HR PCP:  0.03;

CASPER         CLOUDY    40  39  97 N17       29.99R FOG     WCI  31
6HR MIN TEMP:  40; 6HR MAX TEMP:  44; 6HR PCP: TRACE;

DOUGLAS        CLOUDY    46  43  89 SE7       30.01R
6HR MIN TEMP:  44; 6HR MAX TEMP:  46; 6HR PCP:  0.19;


$$
WYZ021-027>030-104>119-240100-
SOUTHERN WYOMING

CITY           SKY/WX    TMP DP  RH WIND       PRES   REMARKS
EVANSTON       LGT RAIN  41  37  86 N3        29.94S
6HR MIN TEMP:  39; 6HR MAX TEMP:  45; 6HR PCP: TRACE;

KEMMERER         N/A     46  32  57 CALM      29.94S
FORT BRIDGER   FAIR      47  37  68 N5        29.96R
ROCK SPRINGS   PTSUNNY   45  39  79 NE16      29.93R
6HR MIN TEMP:  41; 6HR MAX TEMP:  46;

DIXON          FAIR      56  34  44 SW5       29.92F
RAWLINS        CLOUDY    50  40  68 S9        29.92S
6HR MIN TEMP:  48; 6HR MAX TEMP:  54; 6HR PCP:  0.02;

SARATOGA       CLOUDY    46  36  66 SE12G20   29.93F
LARAMIE        CLOUDY    42  39  89 VRB3      29.99S
6HR MIN TEMP:  41; 6HR MAX TEMP:  45; 6HR PCP:  0.29;

CHEYENNE       LGT RAIN  42  40  92 NE6       30.00F
6HR MIN TEMP:  42; 6HR MAX TEMP:  50; 6HR PCP:  0.09;

TORRINGTON     LGT RAIN  46  44  93 CALM      30.01R
6HR MIN TEMP:  45; 6HR MAX TEMP:  46; 6HR PCP:  0.02;

PINE BLUFFS    RAIN      43  43 100 N8        30.01R

$$




USA.gov is the U.S. government's official web portal to all federal, state and local government web resources and services.